Location: Newark
(51.0500°N, 12.4500°E)
Time: 08:15:56
(UTC+00:00)

Vanguard 1 - Pass Details

Date: 24 February 2020
Orbit: 649 x 3833 km, 34.2° (Epoch: 05 April)

Event Time Altitude Azimuth Distance (km) Brightness Sun altitude
Rises 06:34:12 0° 224° (SW) 7,958 14.4 3.3°
Reaches altitude 10° 06:40:28 10° 217° (SW) 6,912 14.2 4.2°
Maximum altitude 06:59:13 36° 162° (SSE) 4,341 14.0 7.0°
Drops below altitude 10° 07:12:27 10° 104° (ESE) 4,942 15.7 8.8°
Sets 07:15:58 0° 95° (E) 5,555 15.3 9.3°
